Mountain Home Air Force Base, ID

6:22 AM MDT on July 30, 2016 (GMT -0600)
Mountain Home Air Force Base

Weather History for KMUO - July, 2013

Change the Weather History Date:

Wednesday, July 3, 2013

  Actual Average Record
Temperature  
Mean Temperature 87 °F 73 °F  
Max Temperature 99 °F 89 °F 109 °F (2001)
Min Temperature 75 °F 55 °F 36 °F (1912)
Degree Days  
Heating Degree Days 0 1  
Month to date heating degree days 0 3  
Cooling Degree Days 22 8  
Month to date cooling degree days 47 24  
Growing Degree Days 36 (Base 50)    
Moisture  
Dew Point 55 °F    
Average Humidity 37    
Maximum Humidity 66    
Minimum Humidity 19    
Precipitation  
Precipitation T in 0.01 in 0.61 in (1943)
Month to date precipitation T 0.03  
Sea Level Pressure  
Sea Level Pressure 29.92 in    
Wind  
Wind Speed 14 mph (WNW)    
Max Wind Speed 26 mph    
Max Gust Speed 32 mph    
Visibility 10 miles    
Events Rain , Thunderstorm    
T = Trace of Precipitation, MM = Missing Value Source: NWS Daily Summary

Daily Weather History Graph

Daily Weather History Graph

Search for Another Location

Airport or City:

Trip Planner

Search our weather history database for the weather conditions in past years. The results will help you decide how hot, cold, wet, or windy it might be!

Date:

Astronomy

Jul. 03, 2013 Rise Set
Actual Time 6:09 AM MDT 9:26 PM MDT
Civil Twilight 5:34 AM MDT 10:01 PM MDT
Nautical Twilight 4:48 AM MDT 10:46 PM MDT
Astronomical Twilight 3:53 AM MDT 11:41 PM MDT
Moon 2:53 AM MDT (7/3) 5:38 PM MDT (7/3)
Length of Visible Light 16h 26m
Length of Day
15h 16m
Waning Crescent, 18% of the Moon is Illuminated
Jul 3
Waning Crescent
Jul 8
New
Jul 15
First Quarter
Jul 22
Full
Jul 29
Last Quarter

Hourly Weather History & Observations

Time (MDT) Temp. Heat Index Dew Point Humidity Pressure Visibility Wind Dir Wind Speed Gust Speed Precip Events Conditions
12:07 AM 89.6 °F 87.7 °F 55.4 °F 31% 30.02 in 10.0 mi SSE 21.9 mph 31.1 mph N/A Thunderstorm Thunderstorm
12:08 AM 89.6 °F 87.7 °F 55.4 °F 31% 30.02 in 10.0 mi South 19.6 mph 31.1 mph N/A Thunderstorm Thunderstorm
12:22 AM 86.0 °F 84.9 °F 57.2 °F 37% 30.03 in 10.0 mi SSW 13.8 mph 24.2 mph N/A Thunderstorm Overcast
12:58 AM 82.9 °F 82.6 °F 57.4 °F 42% 29.95 in 10.0 mi South 5.8 mph - N/A Thunderstorm Overcast
1:00 AM 82.4 °F 82.0 °F 57.2 °F 42% 30.07 in 10.0 mi SW 6.9 mph - N/A Thunderstorm Thunderstorm
1:31 AM 80.6 °F 81.1 °F 59.0 °F 48% 30.07 in 10.0 mi WSW 8.1 mph - N/A Thunderstorm Scattered Clouds
1:58 AM 82.0 °F 82.8 °F 61.7 °F 50% 29.96 in 10.0 mi NW 13.8 mph - 0.00 in   Scattered Clouds
2:58 AM 80.6 °F 80.9 °F 57.9 °F 46% 29.95 in 10.0 mi SW 19.6 mph 25.3 mph N/A   Mostly Cloudy
3:13 AM 78.8 °F - 60.8 °F 54% 30.06 in 10.0 mi SSW 15.0 mph - N/A Rain Light Rain
3:23 AM 77.0 °F - 60.8 °F 57% 30.08 in 10.0 mi WNW 9.2 mph - N/A Rain Light Rain
3:58 AM 77.2 °F - 62.6 °F 61% 29.98 in 10.0 mi North 11.5 mph - 0.00 in   Light Drizzle
4:58 AM 77.2 °F - 62.2 °F 60% 29.98 in 10.0 mi North 4.6 mph - 0.00 in   Partly Cloudy
5:58 AM 78.3 °F - 60.8 °F 55% 29.94 in 10.0 mi NNW 8.1 mph - 0.00 in   Clear
6:58 AM 75.4 °F - 62.2 °F 64% 29.93 in 10.0 mi WNW 4.6 mph - N/A   Mostly Cloudy
7:58 AM 75.7 °F - 63.7 °F 66% 29.93 in 10.0 mi Calm Calm - N/A   Scattered Clouds
8:58 AM 81.0 °F 81.3 °F 59.2 °F 47% 29.91 in 10.0 mi North 6.9 mph - N/A   Scattered Clouds
9:58 AM 86.0 °F 84.7 °F 56.3 °F 36% 29.91 in 10.0 mi NW 12.7 mph - N/A   Overcast
10:58 AM 89.1 °F 88.8 °F 60.3 °F 38% 29.91 in 10.0 mi West 15.0 mph 24.2 mph N/A   Mostly Cloudy
10:59 AM 89.6 °F 88.1 °F 57.2 °F 33% 30.02 in 10.0 mi West 16.1 mph 20.7 mph N/A   Scattered Clouds
11:58 AM 90.7 °F 90.1 °F 59.2 °F 35% 29.90 in 10.0 mi WNW 16.1 mph 24.2 mph N/A   Clear
12:03 PM 93.2 °F 90.8 °F 53.6 °F 26% 30.01 in 10.0 mi WNW 18.4 mph 26.5 mph N/A   Clear
12:58 PM 96.3 °F - 50.7 °F 21% 29.89 in 10.0 mi WNW 18.4 mph 27.6 mph N/A   Mostly Cloudy
1:58 PM 93.9 °F - 49.3 °F 22% 29.90 in 10.0 mi WNW 19.6 mph 27.6 mph N/A   Mostly Cloudy
2:58 PM 91.9 °F - 50.9 °F 25% 29.88 in 10.0 mi WNW 20.7 mph - N/A   Overcast
3:58 PM 96.6 °F - 52.5 °F 23% 29.83 in 10.0 mi NW 26.5 mph 32.2 mph N/A   Mostly Cloudy
4:58 PM 96.6 °F - 50.7 °F 21% 29.81 in 10.0 mi NW 20.7 mph - N/A   Clear
5:58 PM 96.4 °F - 50.9 °F 21% 29.81 in 10.0 mi NW 18.4 mph - N/A   Scattered Clouds
6:58 PM 97.0 °F - 48.0 °F 19% 29.79 in 10.0 mi NW 19.6 mph - N/A   Scattered Clouds
7:58 PM 94.3 °F - 48.2 °F 21% 29.78 in 10.0 mi WNW 15.0 mph - N/A   Mostly Cloudy
8:58 PM 92.8 °F - 46.8 °F 20% 29.78 in 10.0 mi NW 16.1 mph - N/A   Clear
9:35 PM 91.4 °F - 46.4 °F 21% 29.89 in 10.0 mi North 12.7 mph - N/A   Clear
9:58 PM 90.5 °F - 48.0 °F 23% 29.80 in 10.0 mi NNE 6.9 mph - N/A   Clear
10:58 PM 83.5 °F - 50.4 °F 32% 29.82 in 10.0 mi NE 3.5 mph - N/A   Overcast
11:58 PM 82.8 °F - 49.8 °F 32% 29.81 in 10.0 mi NNW 3.5 mph - N/A   Overcast